Regional Weather Roundup
Issued by NWS

Home | Current Version | Previous Version | Text Only | Print | Product List | Glossary Off
Versions: 1 2 3 4 5 6 7 8 9 10 11 12 13 14 15 16 17 18 19 20 21 22 23 24 25 26 27

000
ASUS45 KCYS 241010
RWRWY

WYOMING REGIONAL WEATHER ROUNDUP
NATIONAL WEATHER SERVICE CHEYENNE WY
400 AM MDT MON JUL 24 2017

NOTE:  "FAIR" INDICATES FEW OR NO CLOUDS BELOW 12,000 FEET
WITH NO SIGNIFICANT WEATHER AND/OR OBSTRUCTIONS TO VISIBILITY.

WYZ001-241100-
YELLOWSTONE NATIONAL PARK

CITY           SKY/WX    TMP DP  RH WIND       PRES   REMARKS
LK YELLOWSTONE   N/A     41  37  86 CALM      30.26F
W YELLOWSTONE  NOT AVBL

$$
WYZ002>013-054>058-071-098>099-241100-
NORTHERN WYOMING

CITY           SKY/WX    TMP DP  RH WIND       PRES   REMARKS
JACKSON        FAIR      46  41  81 N5        30.17S
CODY           FAIR      69  37  30 SE9       29.99S
GREYBULL       FAIR      64  32  30 SE8       29.91S
WORLAND        FAIR      62  34  35 E7        29.92F
SHERIDAN       FAIR      67  48  50 S3        29.89F
BUFFALO        FAIR      64  39  39 S3        29.98F
GILLETTE       FAIR      58  56  93 S5        29.93F
HULETT         FAIR      68  52  56 CALM      29.95S
NEWCASTLE      FAIR      75  43  31 SE14      29.93F

$$
WYZ014>020-022>026-101>103-241100-
CENTRAL WYOMING

CITY           SKY/WX    TMP DP  RH WIND       PRES   REMARKS
BIG PINEY      FAIR      47  37  68 N5        30.21F
PINEDALE       FAIR      45  39  81 NW7       30.23F
DUBOIS         FAIR      54  34  47 NW15      30.19S
LANDER         FAIR      66  33  29 CALM      30.07S
RIVERTON       FAIR      62  33  33 W8        30.05S
CASPER         FAIR      61  39  44 W7        30.03S
DOUGLAS        FAIR      60  46  59 CALM      30.00S

$$
WYZ021-027>030-104>119-241100-
SOUTHERN WYOMING

CITY           SKY/WX    TMP DP  RH WIND       PRES   REMARKS
EVANSTON       FAIR      61  40  45 SE6       30.23S
KEMMERER         N/A     55  34  44 CALM      30.24S
FORT BRIDGER   FAIR      69  37  30 SW13      30.24S
ROCK SPRINGS   FAIR      63  36  36 SW10      30.18S
RAWLINS        FAIR      56  27  32 CALM      30.17F
SARATOGA       FAIR      54  36  50 SE10      30.21S
LARAMIE        FAIR      54  46  74 S6        30.20S
CHEYENNE       FAIR      63  52  67 SW8       30.12F
TORRINGTON     FAIR      74  53  48 VRB3      29.98S
PINE BLUFFS    FAIR      64  54  68 S10G18    30.08S

$$




USA.gov is the U.S. government's official web portal to all federal, state and local government web resources and services.